• în România
  • Lista ţărilor
  • Pe 7 zile
  • Temperatura apei
  • Hartă satelitară
  • Meteo pe hartă
  • Widget-uri
  • user-avatar
    Intrare

    Meteo pe oră la Szombathely

    Astăzi, 20 Mai, Duminică

    Timp Temperatura Precipitaţii Vânt Presiune Umiditate
    00:00 +13°C° 0 mm 2 m/s 745 mmHg 91%
    01:00 +13°C° 0 mm 2 m/s 745 mmHg 92%
    02:00 +12°C° 0 mm 2 m/s 746 mmHg 92%
    03:00 +12°C° 0 mm 2 m/s 746 mmHg 92%
    04:00 +12°C° 0 mm 2 m/s 746 mmHg 92%
    05:00 +13°C° 0 mm 2 m/s 746 mmHg 89%
    06:00 +14°C° 0 mm 2 m/s 746 mmHg 86%
    07:00 +15°C° 0 mm 2 m/s 746 mmHg 82%
    08:00 +17°C° 0,1 mm 2 m/s 746 mmHg 77%
    09:00 +18°C° 0,1 mm 2 m/s 746 mmHg 72%
    10:00 +20°C° 0,1 mm 2 m/s 747 mmHg 67%
    11:00 +20°C° 0,6 mm 2 m/s 746 mmHg 67%
    12:00 +21°C° 0,6 mm 2 m/s 746 mmHg 66%
    13:00 +21°C° 0,6 mm 2 m/s 746 mmHg 66%
    14:00 +21°C° 0,7 mm 2 m/s 746 mmHg 67%
    15:00 +21°C° 0,7 mm 2 m/s 746 mmHg 68%
    16:00 +21°C° 0,7 mm 2 m/s 745 mmHg 69%
    17:00 +20°C° 0,3 mm 2 m/s 745 mmHg 73%
    18:00 +19°C° 0,3 mm 2 m/s 745 mmHg 77%
    19:00 +19°C° 0,3 mm 1 m/s 745 mmHg 81%
    20:00 +18°C° 0 mm 1 m/s 745 mmHg 82%
    21:00 +16°C° 0 mm 1 m/s 746 mmHg 84%
    22:00 +15°C° 0 mm 1 m/s 746 mmHg 86%
    23:00 +14°C° 0,1 mm 1 m/s 746 mmHg 87%

    Mâine, 21 Mai, Luni

    Timp Temperatura Precipitaţii Vânt Presiune Umiditate
    00:00 +14°C° 0,1 mm 1 m/s 746 mmHg 88%
    01:00 +14°C° 0,1 mm 1 m/s 746 mmHg 88%
    02:00 +14°C° 0 mm 1 m/s 746 mmHg 89%
    03:00 +13°C° 0 mm 1 m/s 745 mmHg 90%
    04:00 +12°C° 0 mm 1 m/s 745 mmHg 91%
    05:00 +14°C° 0 mm 1 m/s 745 mmHg 87%
    06:00 +15°C° 0 mm 1 m/s 745 mmHg 83%
    07:00 +16°C° 0 mm 2 m/s 745 mmHg 78%
    08:00 +17°C° 0 mm 2 m/s 745 mmHg 71%
    09:00 +19°C° 0 mm 2 m/s 745 mmHg 64%
    10:00 +20°C° 0 mm 2 m/s 745 mmHg 56%
    11:00 +21°C° 0 mm 2 m/s 744 mmHg 54%
    12:00 +23°C° 0 mm 2 m/s 744 mmHg 51%
    13:00 +22°C° 0 mm 3 m/s 743 mmHg 49%
    14:00 +24°C° 0 mm 2 m/s 743 mmHg 49%
    15:00 +24°C° 0 mm 2 m/s 742 mmHg 50%
    16:00 +24°C° 0 mm 2 m/s 742 mmHg 50%
    17:00 +21°C° 0 mm 2 m/s 742 mmHg 57%
    18:00 +21°C° 0 mm 1 m/s 741 mmHg 63%
    19:00 +19°C° 0 mm 1 m/s 741 mmHg 70%
    20:00 +18°C° 0 mm 1 m/s 741 mmHg 73%
    21:00 +16°C° 0 mm 1 m/s 742 mmHg 76%
    22:00 +15°C° 0 mm 1 m/s 742 mmHg 79%
    23:00 +14°C° 0 mm 1 m/s 742 mmHg 80%

    Poimâine, 22 Mai, Marţi

    Timp Temperatura Precipitaţii Vânt Presiune Umiditate
    00:00 +14°C° 0 mm 1 m/s 741 mmHg 82%
    01:00 +14°C° 0 mm 1 m/s 741 mmHg 84%
    02:00 +13°C° 0 mm 1 m/s 741 mmHg 85%
    03:00 +13°C° 0 mm 1 m/s 741 mmHg 86%
    04:00 +13°C° 0 mm 1 m/s 741 mmHg 86%
    05:00 +14°C° 0 mm 1 m/s 741 mmHg 83%
    06:00 +16°C° 0 mm 1 m/s 741 mmHg 79%
    07:00 +19°C° 0 mm 1 m/s 741 mmHg 75%
    08:00 +19°C° 0,1 mm 2 m/s 741 mmHg 71%
    09:00 +21°C° 0,1 mm 2 m/s 742 mmHg 67%
    10:00 +22°C° 0,1 mm 3 m/s 742 mmHg 63%
    11:00 +22°C° 0,1 mm 3 m/s 741 mmHg 62%
    12:00 +24°C° 0,1 mm 3 m/s 741 mmHg 61%
    13:00 +24°C° 0,1 mm 3 m/s 741 mmHg 60%
    14:00 +25°C° 0 mm 3 m/s 741 mmHg 60%
    15:00 +25°C° 0 mm 3 m/s 741 mmHg 61%
    16:00 +25°C° 0 mm 2 m/s 741 mmHg 61%
    17:00 +23°C° 0 mm 2 m/s 741 mmHg 68%
    18:00 +21°C° 0 mm 2 m/s 741 mmHg 74%
    19:00 +20°C° 0 mm 2 m/s 741 mmHg 81%
    20:00 +19°C° 0,1 mm 2 m/s 741 mmHg 84%
    21:00 +18°C° 0,1 mm 2 m/s 742 mmHg 88%
    22:00 +17°C° 0,1 mm 2 m/s 742 mmHg 91%
    23:00 +16°C° 0 mm 1 m/s 742 mmHg 92%

    23 Mai, Miercuri

    Timp Temperatura Precipitaţii Vânt Presiune Umiditate
    00:00 +16°C° 0 mm 1 m/s 742 mmHg 92%
    01:00 +16°C° 0 mm 1 m/s 742 mmHg 93%
    02:00 +15°C° 0 mm 1 m/s 743 mmHg 93%
    03:00 +15°C° 0 mm 1 m/s 743 mmHg 93%
    04:00 +14°C° 0 mm 1 m/s 743 mmHg 93%
    05:00 +16°C° 0 mm 1 m/s 743 mmHg 90%
    06:00 +18°C° 0 mm 1 m/s 743 mmHg 86%
    07:00 +20°C° 0 mm 1 m/s 744 mmHg 82%
    08:00 +21°C° 0,1 mm 1 m/s 744 mmHg 76%
    09:00 +23°C° 0,1 mm 1 m/s 744 mmHg 70%
    10:00 +25°C° 0,1 mm 1 m/s 744 mmHg 64%
    11:00 +25°C° 0,4 mm 1 m/s 744 mmHg 62%
    12:00 +26°C° 0,4 mm 1 m/s 744 mmHg 60%
    13:00 +26°C° 0,4 mm 2 m/s 744 mmHg 58%
    14:00 +26°C° 0,4 mm 1 m/s 744 mmHg 59%
    15:00 +26°C° 0,4 mm 1 m/s 743 mmHg 59%
    16:00 +26°C° 0,4 mm 1 m/s 743 mmHg 60%
    17:00 +25°C° 0,3 mm 1 m/s 743 mmHg 67%
    18:00 +23°C° 0,3 mm 2 m/s 743 mmHg 73%
    19:00 +21°C° 0,3 mm 2 m/s 743 mmHg 80%
    20:00 +20°C° 0,4 mm 2 m/s 743 mmHg 83%
    21:00 +19°C° 0,4 mm 2 m/s 744 mmHg 86%
    22:00 +18°C° 0,4 mm 2 m/s 744 mmHg 89%
    23:00 +17°C° 0,3 mm 2 m/s 744 mmHg 90%

    24 Mai, Joi

    Timp Temperatura Precipitaţii Vânt Presiune Umiditate
    00:00 +17°C° 0,3 mm 2 m/s 744 mmHg 92%
    01:00 +17°C° 0,3 mm 2 m/s 744 mmHg 93%
    02:00 +16°C° 0,2 mm 2 m/s 744 mmHg 94%
    03:00 +16°C° 0,2 mm 2 m/s 744 mmHg 95%
    04:00 +16°C° 0,2 mm 2 m/s 744 mmHg 95%
    05:00 +17°C° 0 mm 3 m/s 744 mmHg 92%
    06:00 +18°C° 0 mm 3 m/s 744 mmHg 90%
    07:00 +19°C° 0 mm 3 m/s 744 mmHg 87%
    08:00 +20°C° 0,1 mm 3 m/s 744 mmHg 82%
    09:00 +21°C° 0,1 mm 4 m/s 744 mmHg 77%
    10:00 +23°C° 0,1 mm 4 m/s 744 mmHg 73%
    11:00 +23°C° 0,6 mm 4 m/s 744 mmHg 71%
    12:00 +25°C° 0,6 mm 4 m/s 744 mmHg 69%
    13:00 +26°C° 0,6 mm 4 m/s 744 mmHg 68%
    14:00 +25°C° 0,7 mm 4 m/s 744 mmHg 69%
    15:00 +25°C° 0,7 mm 4 m/s 743 mmHg 70%
    16:00 +25°C° 0,7 mm 4 m/s 743 mmHg 72%
    17:00 +24°C° 0,3 mm 3 m/s 743 mmHg 77%
    18:00 +22°C° 0,3 mm 3 m/s 743 mmHg 81%
    19:00 +20°C° 0,3 mm 3 m/s 743 mmHg 86%
    20:00 +19°C° 0,2 mm 3 m/s 743 mmHg 88%
    21:00 +18°C° 0,2 mm 3 m/s 744 mmHg 89%
    22:00 +17°C° 0,2 mm 3 m/s 744 mmHg 91%
    23:00 +17°C° 0,2 mm 3 m/s 744 mmHg 91%

    25 Mai, Vineri

    Timp Temperatura Precipitaţii Vânt Presiune Umiditate
    00:00 +16°C° 0,2 mm 3 m/s 744 mmHg 90%
    01:00 +16°C° 0,2 mm 3 m/s 743 mmHg 90%
    02:00 +14°C° 0 mm 3 m/s 743 mmHg 91%
    03:00 +14°C° 0 mm 3 m/s 743 mmHg 91%
    04:00 +13°C° 0 mm 3 m/s 743 mmHg 91%
    05:00 +16°C° 0 mm 3 m/s 743 mmHg 88%
    06:00 +17°C° 0 mm 3 m/s 743 mmHg 85%
    07:00 +18°C° 0 mm 3 m/s 743 mmHg 82%
    08:00 +19°C° 0 mm 3 m/s 743 mmHg 76%
    09:00 +21°C° 0 mm 3 m/s 743 mmHg 70%
    10:00 +22°C° 0 mm 3 m/s 743 mmHg 64%
    11:00 +24°C° 0 mm 3 m/s 743 mmHg 61%
    12:00 +25°C° 0 mm 3 m/s 743 mmHg 57%
    13:00 +26°C° 0 mm 3 m/s 742 mmHg 54%
    14:00 +26°C° 0 mm 3 m/s 742 mmHg 54%
    15:00 +26°C° 0 mm 2 m/s 742 mmHg 55%
    16:00 +26°C° 0 mm 2 m/s 742 mmHg 55%
    17:00 +24°C° 0,1 mm 2 m/s 742 mmHg 62%
    18:00 +23°C° 0,1 mm 2 m/s 742 mmHg 68%
    19:00 +21°C° 0,1 mm 1 m/s 742 mmHg 74%
    20:00 +19°C° 0 mm 2 m/s 742 mmHg 77%
    21:00 +18°C° 0 mm 2 m/s 743 mmHg 80%
    22:00 +17°C° 0 mm 2 m/s 743 mmHg 83%
    23:00 +17°C° 0,1 mm 2 m/s 743 mmHg 85%
    Arată mai mult